Home   Weather   Keflavík   Past weeks

Flag for Iceland Past Weather in Keflavík, Iceland — Yesterday and Last 2 Weeks

Now
41 °F

Sprinkles. Broken clouds.


Feels Like: 33 °F
Forecast: N/A
Wind: 16 mph from Southeast

Location: Keflavikurflugvollur

Current Time: Apr 29, 2017 at 7:48:13 pm

Latest Report: Apr 29, 2017 at 7:00 pm


Visibility: N/A

Pressure: 29.56 "Hg

Humidity: 87%

Dew Point: 37 °F

Location of KeflavíkLocation

Past Weather in Keflavík — Graph

°F

Keflavík Temperature Yesterday

Maximum temperature yesterday: 43 °F (at 9:30 am)
Minimum temperature yesterday: 32 °F (at 3:30 pm)
Average temperature yesterday: 37 °F

High & Low Weather Summary for the Past Weeks

 TemperatureHumidityPressure
High50 °F (Apr 26, 4:30 pm)100% (Apr 17, 8:00 pm)30.63 "Hg (Apr 17, 8:00 pm)
Low25 °F (Apr 24, 3:30 am)41% (Apr 24, 6:00 pm)29.00 "Hg (Apr 28, 5:30 pm)
Average37 °F76%30.05 "Hg
* Reported Apr 14 6:00 pm — Apr 29 6:30 pm, Keflavík, Weather by CustomWeather, © 2017

Note: Actual official high and low records may vary slightly from our data, if they occured in-between our weather recording intervals... More about our weather records

Advertising

Keflavík Weather History for the Previous 24 Hours

Scroll right to see more
 ConditionsComfort  
Time TempWeatherWind HumidityBarometerVisibility
6:30 pm
Sat, Apr 29
43 °FScattered showers. Scattered clouds.20 mph76%29.56 "HgN/A
6:00 pm41 °FSprinkles. Partly sunny.21 mph76%29.56 "HgN/A
5:30 pm41 °FSprinkles. Broken clouds.28 mph81%29.56 "HgN/A
5:00 pm45 °FScattered showers. Scattered clouds.20 mph71%29.53 "HgN/A
4:30 pm45 °FScattered showers. Scattered clouds.24 mph71%29.53 "HgN/A
4:00 pm43 °FSprinkles. Partly sunny.26 mph76%29.50 "HgN/A
3:30 pm45 °FScattered showers. Scattered clouds.23 mph71%29.50 "HgN/A
3:00 pm45 °FScattered showers. Scattered clouds.24 mph71%29.50 "HgN/A
2:30 pm41 °FScattered showers. Partly sunny.23 mph81%29.50 "HgN/A
2:00 pm43 °FScattered showers. Partly sunny.26 mph76%29.47 "HgN/A
12:30 pm41 °FScattered showers. Passing clouds.24 mph76%29.45 "HgN/A
12:00 pm41 °FScattered showers. Passing clouds.23 mph76%29.45 "HgN/A
11:30 am39 °FScattered showers. Scattered clouds.23 mph81%29.42 "HgN/A
11:00 am39 °FScattered showers. Scattered clouds.25 mph75%29.42 "HgN/A
10:30 am39 °FScattered showers. Broken clouds.14 mph75%29.39 "HgN/A
10:00 am37 °FScattered showers. Partly sunny.23 mph81%29.39 "HgN/A
9:30 am37 °FScattered showers. Broken clouds.18 mph81%29.36 "HgN/A
9:00 am39 °FScattered showers. Broken clouds.25 mph75%29.36 "HgN/A
8:30 am37 °FScattered showers. Partly sunny.21 mph81%29.36 "HgN/A
7:30 am37 °FBroken clouds.28 mph75%29.33 "HgN/A
7:00 am37 °FHail. Broken clouds.20 mph81%29.30 "HgN/A
6:30 am37 °FScattered clouds.25 mph81%29.30 "HgN/A
6:04 am37 °FBroken clouds.26 mph75%29.27 "HgN/A
5:30 am37 °FBroken clouds.25 mph75%29.27 "HgN/A
5:00 am37 °FPassing clouds.22 mph75%29.27 "HgN/A
4:30 am36 °FPartly cloudy.24 mph87%29.24 "HgN/A
4:00 am37 °FPartly cloudy.26 mph81%29.24 "HgN/A
3:30 am36 °FPartly cloudy.26 mph87%29.24 "HgN/A
3:00 am34 °FSnow flurries. Partly cloudy.25 mph93%29.24 "Hg6 mi
2:30 am36 °FSprinkles. Passing clouds.24 mph81%29.24 "HgN/A
2:00 am36 °FSprinkles. Partly cloudy.30 mph87%29.21 "HgN/A
1:00 am37 °FPartly cloudy.16 mph75%29.21 "HgN/A
12:30 am36 °FSprinkles. Partly cloudy.21 mph81%29.21 "HgN/A
12:00 am36 °FPassing clouds.18 mph70%29.18 "HgN/A
11:30 pm
Fri, Apr 28
37 °FPassing clouds.20 mph70%29.18 "HgN/A
11:00 pm36 °FScattered showers. Passing clouds.18 mph75%29.18 "HgN/A
10:30 pm36 °FScattered showers. Passing clouds.10 mph81%29.18 "HgN/A
10:00 pm34 °FScattered showers. Passing clouds.14 mph81%29.15 "HgN/A
9:30 pm36 °FScattered showers. Broken clouds.12 mph81%29.15 "HgN/A
9:00 pm34 °FScattered showers. Partly sunny.14 mph93%29.12 "HgN/A
8:30 pm34 °FBroken clouds.14 mph100%29.12 "HgN/A
8:00 pm34 °FScattered showers. Broken clouds.24 mph100%29.09 "HgN/A
7:30 pm32 °FLight snow. Cloudy.20 mph100%29.06 "Hg1 mi
7:00 pm32 °FSnow. Dense fog.17 mph100%29.03 "Hg1 mi
Weather by CustomWeather, © 2017

See weather overviewHow to use our weather pages